CW5091 Weather Reports


Display with metric or nautical units.
time (UTC)temp
F
wind
direction
speed
MPH
gust
MPH
rain 1hr
in
rain 24hr
in
rain mn
in
humidity
%
barometer
mb
20210614025618 74 119 1.0 5.0 0.00 0.00 0.00 38 1018.1
20210614025053 74 0 1.0 9.0 0.00 0.00 0.00 37 1017.8
20210614024654 75 193 2.0 9.0 0.00 0.00 0.00 37 1017.8
20210614024133 75 198 2.0 8.0 0.00 0.00 0.00 36 1017.4
20210614023606 75 225 1.0 8.0 0.00 0.00 0.00 36 1017.5
20210614023204 76 51 1.0 8.0 0.00 0.00 0.00 36 1017.4
20210614022550 76 51 2.0 9.0 0.00 0.00 0.00 35 1017.4
20210614022048 76 142 3.0 9.0 0.00 0.00 0.00 35 1017.1
20210614021943 76 291 1.0 9.0 0.00 0.00 0.00 35 1017.2
20210614021051 77 9 2.0 9.0 0.00 0.00 0.00 36 1017.4
20210614020554 77 86 2.0 7.0 0.00 0.00 0.00 35 1017.2
20210614020126 78 200 1.0 7.0 0.00 0.00 0.00 34 1017.0
20210614015551 78 221 2.0 7.0 0.00 0.00 0.00 34 1017.2
20210614015107 78 105 1.0 10.0 0.00 0.00 0.00 34 1017.0
20210614014739 78 19 1.0 10.0 0.00 0.00 0.00 34 1017.0
20210614014049 79 98 2.0 11.0 0.00 0.00 0.00 33 1017.0
20210614013553 79 38 1.0 16.0 0.00 0.00 0.00 32 1016.9
20210614013153 79 207 2.0 16.0 0.00 0.00 0.00 32 1016.7
20210614012548 80 76 1.0 9.0 0.00 0.00 0.00 32 1016.8
20210614012059 80 51 1.0 9.0 0.00 0.00 0.00 32 1016.7
20210614011725 80 155 1.0 11.0 0.00 0.00 0.00 31 1016.7
20210614011111 81 344 3.0 11.0 0.00 0.00 0.00 31 1016.7
20210614010547 81 282 1.0 12.0 0.00 0.00 0.00 31 1016.7
20210614010152 81 128 1.0 12.0 0.00 0.00 0.00 30 1016.8
20210614005547 82 205 1.0 10.0 0.00 0.00 0.00 31 1016.6
20210614005108 82 107 2.0 10.0 0.00 0.00 0.00 31 1016.7
20210614004641 82 153 2.0 7.0 0.00 0.00 0.00 31 1016.7
20210614004047 82 0 1.0 9.0 0.00 0.00 0.00 31 1016.7
20210614003602 83 49 2.0 9.0 0.00 0.00 0.00 30 1016.7
20210614003151 83 9 2.0 8.0 0.00 0.00 0.00 29 1016.7
20210614002601 84 216 2.0 8.0 0.00 0.00 0.00 29 1016.6
20210614002059 84 275 1.0 7.0 0.00 0.00 0.00 29 1016.4
20210614001708 84 300 2.0 14.0 0.00 0.00 0.00 29 1016.8
20210614001052 85 193 3.0 14.0 0.00 0.00 0.00 27 1016.6
20210614000549 85 205 2.0 9.0 0.00 0.00 0.00 28 1016.6
20210614000212 85 195 1.0 8.0 0.00 0.00 0.00 28 1016.6
20210613235548 86 116 1.0 9.0 0.00 0.00 0.00 27 1016.6
20210613235104 86 159 2.0 11.0 0.00 0.00 0.00 26 1016.5
20210613234746 86 209 2.0 11.0 0.00 0.00 0.00 27 1016.7
20210613234050 87 0 2.0 9.0 0.00 0.00 0.00 26 1016.6
20210613233549 86 157 1.0 7.0 0.00 0.00 0.00 27 1016.6
20210613233539 86 319 2.0 7.0 0.00 0.00 0.00 26 1016.7
20210613232826 86 205 1.0 7.0 0.00 0.00 0.00 27 1016.6
20210613232058 86 325 1.0 6.0 0.00 0.00 0.00 28 1016.8
20210613231649 85 87 2.0 6.0 0.00 0.00 0.00 29 1016.6
20210613231409 85 126 2.0 12.0 0.00 0.00 0.00 28 1016.7
20210613230627 85 165 2.0 12.0 0.00 0.00 0.00 27 1016.7
20210613230141 86 216 2.0 8.0 0.00 0.00 0.00 27 1016.6
20210613225715 86 265 2.0 7.0 0.00 0.00 0.00 27 1016.7
20210613225051 87 137 2.0 13.0 0.00 0.00 0.00 26 1016.6
20210613224722 88 291 2.0 13.0 0.00 0.00 0.00 25 1016.6
20210613224046 88 0 1.0 10.0 0.00 0.00 0.00 26 1016.6
20210613223841 87 83 2.0 10.0 0.00 0.00 0.00 27 1016.8
20210613223343 88 46 1.0 5.0 0.00 0.00 0.00 24 1016.7
20210613222550 88 198 1.0 8.0 0.00 0.00 0.00 26 1016.6
20210613222105 87 41 1.0 9.0 0.00 0.00 0.00 26 1016.7
20210613221633 87 139 2.0 9.0 0.00 0.00 0.00 24 1016.7
20210613221239 87 325 3.0 9.0 0.00 0.00 0.00 24 1016.6
20210613220608 87 44 2.0 9.0 0.00 0.00 0.00 23 1016.7
20210613220257 88 250 2.0 9.0 0.00 0.00 0.00 23 1016.7
20210613215803 88 205 1.0 6.0 0.00 0.00 0.00 23 1016.6
20210613215147 89 178 2.0 6.0 0.00 0.00 0.00 19 1016.4
20210613214717 89 178 1.0 5.0 0.00 0.00 0.00 21 1016.7
20210613214110 89 126 1.0 7.0 0.00 0.00 0.00 22 1016.5
20210613213607 89 273 2.0 7.0 0.00 0.00 0.00 21 1016.4
20210613213149 89 0 1.0 6.0 0.00 0.00 0.00 22 1016.4
20210613212547 89 243 1.0 6.0 0.00 0.00 0.00 21 1016.6
20210613212048 88 22 1.0 7.0 0.00 0.00 0.00 20 1016.6
20210613211642 88 49 1.0 7.0 0.00 0.00 0.00 22 1016.7
20210613211054 88 163 1.0 7.0 0.00 0.00 0.00 23 1016.7
20210613210546 88 44 2.0 8.0 0.00 0.00 0.00 23 1016.7
20210613210142 88 205 2.0 9.0 0.00 0.00 0.00 24 1016.6
20210613205548 88 334 1.0 9.0 0.00 0.00 0.00 21 1016.7
20210613205107 88 140 1.0 10.0 0.00 0.00 0.00 24 1016.7
20210613204652 87 0 1.0 10.0 0.00 0.00 0.00 24 1016.8
20210613204054 88 250 1.0 5.0 0.00 0.00 0.00 24 1016.8
20210613203554 88 157 1.0 5.0 0.00 0.00 0.00 24 1017.1
20210613203104 88 0 1.0 6.0 0.00 0.00 0.00 22 1017.0
20210613202625 87 39 1.0 6.0 0.00 0.00 0.00 24 1017.1
20210613202102 86 178 1.0 5.0 0.00 0.00 0.00 23 1017.0
20210613201715 87 0 1.0 5.0 0.00 0.00 0.00 21 1017.2
20210613201048 88 0 1.0 6.0 0.00 0.00 0.00 23 1017.4
20210613200547 88 249 1.0 7.0 0.00 0.00 0.00 22 1017.5
20210613200253 87 0 2.0 7.0 0.00 0.00 0.00 22 1017.6
20210613195627 87 129 1.0 4.0 0.00 0.00 0.00 22 1017.6
20210613195058 87 0 0.0 5.0 0.00 0.00 0.00 23 1017.6
20210613194859 86 0 1.0 7.0 0.00 0.00 0.00 22 1017.6
20210613194051 87 221 1.0 7.0 0.00 0.00 0.00 22 1017.7
20210613193705 87 247 1.0 5.0 0.00 0.00 0.00 24 1017.7
20210613193336 85 0 1.0 5.0 0.00 0.00 0.00 24 1017.7
20210613192821 86 67 1.0 7.0 0.00 0.00 0.00 21 1017.7
20210613192122 86 0 1.0 7.0 0.00 0.00 0.00 24 1017.7
20210613191742 86 0 1.0 6.0 0.00 0.00 0.00 24 1017.6
20210613191048 85 291 0.0 6.0 0.00 0.00 0.00 23 1017.7
20210613190606 86 265 1.0 6.0 0.00 0.00 0.00 23 1017.9
20210613190237 85 186 0.0 4.0 0.00 0.00 0.00 25 1017.8
20210613185841 84 214 1.0 4.0 0.00 0.00 0.00 22 1017.8
20210613185150 85 0 1.0 4.0 0.00 0.00 0.00 21 1017.7
20210613184747 85 319 0.0 3.0 0.00 0.00 0.00 20 1017.8
20210613184055 85 0 0.0 6.0 0.00 0.00 0.00 22 1017.7
20210613183546 85 178 1.0 7.0 0.00 0.00 0.00 21 1017.8
20210613183124 86 238 2.0 7.0 0.00 0.00 0.00 20 1017.8
20210613182609 86 133 1.0 5.0 0.00 0.00 0.00 21 1017.8
20210613182047 86 123 1.0 7.0 0.00 0.00 0.00 21 1017.7
20210613181649 84 221 1.0 7.0 0.00 0.00 0.00 22 1017.8
20210613181050 84 298 1.0 7.0 0.00 0.00 0.00 21 1017.8
20210613180627 84 71 2.0 6.0 0.00 0.00 0.00 21 1017.8
20210613180200 84 195 1.0 5.0 0.00 0.00 0.00 23 1017.8
20210613175557 84 0 1.0 5.0 0.00 0.00 0.00 21 1017.8
20210613175142 83 178 1.0 5.0 0.00 0.00 0.00 24 1017.9
20210613174808 83 76 1.0 5.0 0.00 0.00 0.00 22 1018.0
20210613174142 83 65 1.0 5.0 0.00 0.00 0.00 24 1018.0
20210613173558 83 111 1.0 5.0 0.00 0.00 0.00 23 1018.1
20210613173211 82 56 1.0 5.0 0.00 0.00 0.00 25 1018.2
20210613172547 82 46 1.0 5.0 0.00 0.00 0.00 25 1018.0
20210613172125 81 46 1.0 5.0 0.00 0.00 0.00 24 1018.2
20210613171646 80 178 0.0 5.0 0.00 0.00 0.00 26 1018.3
20210613171120 80 146 0.0 4.0 0.00 0.00 0.00 27 1018.3
20210613170554 79 265 0.0 4.0 0.00 0.00 0.00 28 1018.5
20210613170212 79 111 0.0 3.0 0.00 0.00 0.00 30 1018.5
20210613165735 78 178 1.0 3.0 0.00 0.00 0.00 27 1018.5
20210613165425 77 137 0.0 4.0 0.00 0.00 0.00 30 1018.7
20210613164900 77 0 1.0 4.0 0.00 0.00 0.00 29 1018.5
20210613164619 77 0 1.0 4.0 0.00 0.00 0.00 29 1018.5
20210613164113 77 65 1.0 5.0 0.00 0.00 0.00 30 1018.5
20210613163553 77 0 0.0 6.0 0.00 0.00 0.00 31 1018.5
20210613163222 76 62 1.0 6.0 0.00 0.00 0.00 31 1018.7
20210613162551 75 46 1.0 5.0 0.00 0.00 0.00 34 1018.7
20210613162049 75 0 1.0 5.0 0.00 0.00 0.00 33 1018.7
20210613161712 74 178 1.0 4.0 0.00 0.00 0.00 33 1018.8
20210613161052 74 55 1.0 4.0 0.00 0.00 0.00 35 1018.8
20210613160554 73 63 1.0 4.0 0.00 0.00 0.00 36 1018.8
20210613160206 72 131 1.0 3.0 0.00 0.00 0.00 36 1018.9
20210613155600 71 67 1.0 3.0 0.00 0.00 0.00 39 1018.9
20210613155114 70 61 1.0 3.0 0.00 0.00 0.00 42 1019.0
20210613154651 68 0 0.0 2.0 0.00 0.00 0.00 47 1018.9
20210613154108 67 0 1.0 2.0 0.00 0.00 0.00 50 1018.8
20210613153548 65 0 0.0 2.0 0.00 0.00 0.00 55 1018.9
20210613153140 64 115 0.0 2.0 0.00 0.00 0.00 57 1019.0
20210613152547 63 51 0.0 2.0 0.00 0.00 0.00 57 1019.0
20210613152047 62 93 0.0 2.0 0.00 0.00 0.00 59 1019.0
20210613151714 61 0 1.0 3.0 0.00 0.00 0.00 60 1019.0
20210613151048 59 111 1.0 3.0 0.00 0.00 0.00 63 1019.0
20210613150548 58 93 1.0 2.0 0.00 0.00 0.00 65 1018.9
20210613150146 58 93 0.0 2.0 0.00 0.00 0.00 67 1018.9
20210613145550 57 67 0.0 2.0 0.00 0.00 0.00 69 1019.0
20210613145054 56 137 1.0 2.0 0.00 0.00 0.00 69 1018.9
20210613144751 55 0 0.0 2.0 0.00 0.00 0.00 71 1018.9
20210613144047 55 58 0.0 2.0 0.00 0.00 0.00 71 1018.9
20210613143553 54 0 0.0 2.0 0.00 0.00 0.00 73 1019.0
20210613143154 54 56 0.0 2.0 0.00 0.00 0.00 74 1018.8
20210613142547 53 34 0.0 2.0 0.00 0.00 0.00 75 1018.8
20210613142049 53 111 0.0 1.0 0.00 0.00 0.00 75 1018.9
20210613141652 52 0 0.0 1.0 0.00 0.00 0.00 76 1018.9
20210613141047 52 0 0.0 1.0 0.00 0.00 0.00 75 1019.0
20210613140553 52 76 0.0 1.0 0.00 0.00 0.00 75 1018.9
20210613140126 51 0 0.0 1.0 0.00 0.00 0.00 74 1019.1
20210613135548 51 0 0.0 1.0 0.00 0.00 0.00 74 1019.0
20210613135049 51 0 0.0 2.0 0.00 0.00 0.00 73 1019.0
20210613134618 51 0 0.0 2.0 0.00 0.00 0.00 72 1019.0
20210613134048 51 0 0.0 1.0 0.00 0.00 0.00 72 1019.0
20210613133550 51 0 0.0 1.0 0.00 0.00 0.00 71 1019.0
20210613133146 51 0 0.0 1.0 0.00 0.00 0.00 71 1019.0
20210613132548 51 0 0.0 2.0 0.00 0.00 0.00 70 1018.9
20210613132057 51 178 0.0 2.0 0.00 0.00 0.00 69 1018.9
20210613131743 51 196 0.0 1.0 0.00 0.00 0.00 68 1018.9
20210613131056 51 0 0.0 1.0 0.00 0.00 0.00 68 1018.8
20210613130549 51 0 0.0 2.0 0.00 0.00 0.00 67 1018.8
20210613130153 51 0 0.0 2.0 0.00 0.00 0.00 66 1018.8
20210613125547 51 0 0.0 2.0 0.00 0.00 0.00 66 1018.9
20210613125047 51 0 0.0 2.0 0.00 0.00 0.00 66 1019.0
20210613124734 51 148 0.0 2.0 0.00 0.00 0.00 66 1018.8
20210613124048 51 0 0.0 2.0 0.00 0.00 0.00 66 1018.8
20210613123548 52 0 0.0 1.0 0.00 0.00 0.00 66 1018.7
20210613123240 52 178 0.0 1.0 0.00 0.00 0.00 65 1018.7
20210613122601 52 0 0.0 1.0 0.00 0.00 0.00 64 1018.6
20210613122108 52 0 0.0 1.0 0.00 0.00 0.00 64 1018.6
20210613121625 52 0 0.0 1.0 0.00 0.00 0.00 63 1018.5
20210613121055 52 0 0.0 1.0 0.00 0.00 0.00 63 1018.6
20210613120552 52 0 0.0 1.0 0.00 0.00 0.00 63 1018.5
20210613120202 52 0 0.0 1.0 0.00 0.00 0.00 63 1018.5
20210613115550 53 0 0.0 2.0 0.00 0.00 0.00 62 1018.4
20210613115056 53 0 0.0 2.0 0.00 0.00 0.00 62 1018.4
20210613114729 53 0 0.0 1.0 0.00 0.00 0.00 62 1018.3
20210613114049 53 0 0.0 1.0 0.00 0.00 0.00 61 1018.3
20210613113632 53 0 0.0 1.0 0.00 0.00 0.00 61 1018.2
20210613113126 53 0 0.0 2.0 0.00 0.00 0.00 61 1018.2
20210613112553 53 0 0.0 2.0 0.00 0.00 0.00 61 1018.2
20210613112101 53 0 0.0 1.0 0.00 0.00 0.00 60 1018.3
20210613111617 54 0 0.0 1.0 0.00 0.00 0.00 60 1018.3
20210613111053 54 0 0.0 1.0 0.00 0.00 0.00 59 1018.2
20210613110554 54 0 0.0 0.0 0.00 0.00 0.00 59 1018.2
20210613110216 54 0 0.0 1.0 0.00 0.00 0.00 59 1018.2
20210613105617 54 0 0.0 1.0 0.00 0.00 0.00 59 1018.2
20210613105053 54 0 0.0 1.0 0.00 0.00 0.00 59 1018.2
20210613104630 54 0 0.0 1.0 0.00 0.00 0.00 58 1018.2
20210613104050 55 0 0.0 1.0 0.00 0.00 0.00 58 1018.2
20210613103551 55 0 0.0 1.0 0.00 0.00 0.00 58 1018.2
20210613103149 55 0 0.0 1.0 0.00 0.00 0.00 58 1018.3
20210613102554 55 0 0.0 1.0 0.00 0.00 0.00 57 1018.2
20210613102110 55 0 0.0 1.0 0.00 0.00 0.00 57 1018.2
20210613101702 55 0 0.0 1.0 0.00 0.00 0.00 57 1018.3
20210613101055 56 0 0.0 1.0 0.00 0.00 0.00 56 1018.2
20210613100553 56 0 0.0 1.0 0.00 0.00 0.00 56 1018.2
20210613100142 56 0 0.0 1.0 0.00 0.00 0.00 55 1018.2
20210613095549 56 0 0.0 1.0 0.00 0.00 0.00 55 1018.3
20210613095106 56 0 0.0 1.0 0.00 0.00 0.00 55 1018.3
20210613094644 56 0 0.0 1.0 0.00 0.00 0.00 55 1018.2
20210613094101 57 0 0.0 1.0 0.00 0.00 0.00 54 1018.3
20210613093554 57 0 0.0 1.0 0.00 0.00 0.00 54 1018.2
20210613093143 57 0 0.0 1.0 0.00 0.00 0.00 54 1018.2
20210613092558 57 0 0.0 1.0 0.00 0.00 0.00 53 1018.3
20210613092122 57 0 0.0 1.0 0.00 0.00 0.00 52 1018.3
20210613091630 58 0 0.0 1.0 0.00 0.00 0.00 53 1018.4
20210613091053 58 0 0.0 1.0 0.00 0.00 0.00 52 1018.4
20210613090650 58 0 0.0 1.0 0.00 0.00 0.00 51 1018.5
20210613090206 58 0 0.0 1.0 0.00 0.00 0.00 52 1018.4
20210613085553 59 0 0.0 1.0 0.00 0.00 0.00 51 1018.5
20210613085054 59 0 0.0 1.0 0.00 0.00 0.00 51 1018.6
20210613084700 59 0 0.0 1.0 0.00 0.00 0.00 50 1018.5
20210613084054 59 0 0.0 1.0 0.00 0.00 0.00 51 1018.5
20210613083607 59 0 0.0 1.0 0.00 0.00 0.00 50 1018.6
20210613083146 60 0 0.0 2.0 0.00 0.00 0.00 50 1018.6
20210613082549 60 0 0.0 2.0 0.00 0.00 0.00 49 1018.5
20210613082054 60 0 0.0 1.0 0.00 0.00 0.00 49 1018.5
20210613081636 60 0 0.0 1.0 0.00 0.00 0.00 49 1018.5
20210613081111 60 0 0.0 1.0 0.00 0.00 0.00 49 1018.5
20210613080609 60 0 0.0 1.0 0.00 0.00 0.00 48 1018.4
20210613080147 61 0 0.0 2.0 0.00 0.00 0.00 48 1018.5
20210613075559 61 0 0.0 2.0 0.00 0.00 0.00 47 1018.4
20210613075124 61 0 0.0 3.0 0.00 0.00 0.00 47 1018.4
20210613074802 61 221 1.0 3.0 0.00 0.00 0.00 46 1018.4
20210613074049 61 0 0.0 2.0 0.00 0.00 0.00 46 1018.4
20210613073549 62 0 0.0 2.0 0.00 0.00 0.00 45 1018.4
20210613073132 62 137 0.0 3.0 0.00 0.00 0.00 45 1018.4
20210613072549 62 0 1.0 3.0 0.00 0.00 0.00 45 1018.3
20210613072048 62 0 0.0 2.0 0.00 0.00 0.00 44 1018.3
20210613071631 63 236 0.0 2.0 0.00 0.00 0.00 44 1018.3
20210613071109 63 0 0.0 2.0 0.00 0.00 0.00 43 1018.3
20210613070554 63 0 0.0 2.0 0.00 0.00 0.00 43 1018.4
20210613070226 63 0 0.0 1.0 0.00 0.00 0.00 43 1018.4
20210613065628 63 0 0.0 1.0 0.00 0.00 0.00 42 1018.4
20210613065126 64 0 0.0 1.0 0.00 0.00 0.00 43 1018.4
20210613064727 64 0 0.0 1.0 0.00 0.00 0.00 42 1018.5
20210613064104 64 0 0.0 1.0 0.00 0.00 0.00 41 1018.5
20210613063549 64 0 0.0 2.0 0.00 0.00 0.00 41 1018.5
20210613063222 64 0 0.0 2.0 0.00 0.00 0.00 42 1018.6
20210613062607 64 0 0.0 1.0 0.00 0.00 0.00 42 1018.5
20210613062054 65 0 0.0 1.0 0.00 0.00 0.00 41 1018.5
20210613061734 65 0 0.0 2.0 0.00 0.00 0.00 41 1018.5
20210613061048 65 0 0.0 3.0 0.00 0.00 0.00 41 1018.5
20210613060548 65 0 0.0 3.0 0.00 0.00 0.00 41 1018.5
20210613060121 66 0 0.0 2.0 0.00 0.00 0.00 41 1018.6
20210613055549 66 0 0.0 2.0 0.00 0.00 0.00 41 1018.6
20210613055048 66 0 0.0 2.0 0.00 0.00 0.00 40 1018.6
20210613054700 66 205 0.0 2.0 0.00 0.00 0.00 40 1018.5
20210613054049 67 0 0.0 2.0 0.00 0.00 0.00 40 1018.5
20210613053609 67 0 0.0 2.0 0.00 0.00 0.00 39 1018.4
20210613053207 67 0 0.0 1.0 0.00 0.00 0.00 40 1018.6
20210613052557 68 0 0.0 1.0 0.00 0.00 0.00 39 1018.7
20210613052049 68 51 0.0 1.0 0.00 0.00 0.00 39 1018.6
20210613051636 68 0 0.0 1.0 0.00 0.00 0.00 40 1018.6
20210613051048 69 0 0.0 1.0 0.00 0.00 0.00 39 1018.5
20210613050548 69 0 0.0 1.0 0.00 0.00 0.00 39 1018.4
20210613050124 69 0 0.0 1.0 0.00 0.00 0.00 39 1018.3
20210613045605 70 0 0.0 1.0 0.00 0.00 0.00 38 1018.3
20210613045050 70 0 0.0 2.0 0.00 0.00 0.00 38 1018.1
20210613044654 70 0 0.0 2.0 0.00 0.00 0.00 37 1018.1
20210613044052 71 0 0.0 2.0 0.00 0.00 0.00 36 1018.0
20210613043646 71 0 0.0 1.0 0.00 0.00 0.00 36 1018.0
20210613043145 71 0 0.0 1.0 0.00 0.00 0.00 36 1018.0
20210613042622 72 0 0.0 1.0 0.00 0.00 0.00 34 1017.9
20210613042054 72 0 0.0 2.0 0.00 0.00 0.00 34 1017.8
20210613041751 73 0 0.0 3.0 0.00 0.00 0.00 34 1017.7
20210613041055 73 0 0.0 3.0 0.00 0.00 0.00 33 1017.7
20210613040545 73 0 0.0 2.0 0.00 0.00 0.00 33 1017.7
20210613040124 74 0 0.0 1.0 0.00 0.00 0.00 32 1017.6
20210613035547 74 0 0.0 1.0 0.00 0.00 0.00 32 1017.5
20210613035051 74 0 0.0 2.0 0.00 0.00 0.00 32 1017.6
20210613034611 75 0 0.0 2.0 0.00 0.00 0.00 31 1017.5
20210613034109 75 0 0.0 4.0 0.00 0.00 0.00 30 1017.4
20210613033547 75 0 0.0 4.0 0.00 0.00 0.00 30 1017.4
20210613033208 75 171 0.0 3.0 0.00 0.00 0.00 30 1017.4
20210613032553 76 93 1.0 3.0 0.00 0.00 0.00 28 1017.2
20210613032056 76 0 0.0 5.0 0.00 0.00 0.00 28 1017.2
20210613031713 76 178 1.0 5.0 0.00 0.00 0.00 29 1017.0
20210613031046 76 0 0.0 3.0 0.00 0.00 0.00 28 1017.1
20210613030545 76 146 0.0 4.0 0.00 0.00 0.00 28 1017.2
20210613030213 77 0 0.0 4.0 0.00 0.00 0.00 28 1017.0